COSMOS 1275 DEB, 12655

Orbit data source: Space-Track

COSMOS 1275 DEB, 12655 is space debris in LEO originally from a launch on Thu, 04 Jun 1981 UTC launched from the Plesetsk Missile And Space Complex (PKMTR). Debris objects in space refer to the collection of defunct objects orbiting the Earth. Examples of debris include non-operational satellites, rocket bodies, and fragments generated from explosions, collisions, or faulty payload assembly.

Loading next visibility...
Identifier
12655, 1981-053K
Orbit
LEO
Country
Flag of CISCIS
Related business
Manufacturer
Unknown
Mission
Spacecraft
Bus & Motor
Unknown
Mass
Unknown
Launch date (UTC)
1981-06-04 (45 years ago)
Launch vehicle
Unknown
Launch site
Plesetsk Missile And Space Complex (PKMTR)
Object type
Payload
Rocket body
Debris
Shape & HBR
Unknown shape, 0.2 m
Radar Cross Section
Medium (>0.1 m² and <1 m²)

Expand to show TLE details & history
Last TLE update: 7 hours ago

TLE from 7 hours ago
0 COSMOS 1275 DEB
1 12655U 81053K   25343.18020904  .00000160  00000-0  14739-3 0  9991
2 12655  82.9598  12.6542 0032106 238.5242 190.8616 13.76790571227255
Epoch: 2025-12-09T04:19Z
TLE epoch observation values (Epoch: 2025-12-09T04:19:30.061Z)
Latitude
68.27936°
Longitude
-112.42652°
Altitude
1,010.304 km
Speed
7.341 km/s
True Right ascension
02h 02m 28s
True Declination
68° 09' 54"
Sunlit
Object was in full shadow at epoch
Visualization orbit readout
Latitude
Unknown
Longitude
Unknown
Altitude
Unknown
Speed
Unknown
Apparent Right ascension
Unknown
Apparent Declination
Unknown
Sunlit
N/A
Visualization observer readout
Local Sidereal Time
09:47:18
Azimuth
Unknown
Elevation
Unknown
Doppler factor
Unknown
Orbital elements
Apogee altitude
996.038 km
Perigee altitude
948.838 km
Semi-major axis
7,350.575 km
Eccentricity
0.00321
Inclination
82.9598°
RAAN
12.6542°
Arg. of periapsis
238.5242°
True anomaly
190.79254°
Mean anomaly
190.8616°
Eccentric anomaly
190.82705°
Mean motion
3.44398 °/min
Orbital period
104.53 mins
BSTAR
0.00014739
Loading maneuver chart data...
Computing Atmospheric mass density...
Loading historical data...
Loading historical data...
Loading historical data...
Loading historical data...
Loading historical data...
Loading historical data...
Loading historical data...

Documentation

Showing up to 5 results
|